746  
ASUS43 KFSD 171110  
RWRFSD  
 
WEATHER ROUNDUP FOR SE SOUTH DAKOTA/SW MINNESOTA/NW IOWA  
NATIONAL WEATHER SERVICE SIOUX FALLS SD  
600 AM CDT FRI AUG 17 2018  
 
NOTE: "FAIR" INDICATES FEW OR NO CLOUDS BELOW 12,000 FEET WITH NO  
SIGNIFICANT WEATHER AND OR S TO VISIBILITY
.  
 
 
SDZ038>040-050-052>070-171200-  
SOUTHEAST SOUTH DAKOTA  
 
CITY SKY/WX TMP DP RH WIND PRES REMARKS
 
BROOKINGS FOG 62 62 100 CALM 30.10S VSB 1/4  
CHAMBERLAIN CLEAR 63 63 100 N7 30.12R  
HURON CLEAR 59 57 93 W3 30.09S  
MADISON FAIR 59 59 100 NW5 30.11S  
MITCHELL CLEAR 63 60 90 CALM 30.10R  
SIOUX FALLS CLEAR 64 62 93 CALM 30.09S  
WINNER FAIR 62 58 86 SW6 30.13S  
YANKTON CLEAR 62 61 96 NW7 30.09S  

 
 
MNZ071-072-080-081-089-090-097-098-171200-  
SOUTHWEST MINNESOTA  
 
CITY SKY/WX TMP DP RH WIND PRES REMARKS
 
FAIRMONT CLEAR 65 64 97 NW5 30.05R  
JACKSON CLEAR 63 63 100 NW6 30.07S  
LUVERNE CLEAR 61 59 94 CALM 30.09S  
MARSHALL CLEAR 63 62 97 W3 30.08S  
MONTEVIDEO CLEAR 63 63 100 NW5 30.07R  
PIPESTONE CLEAR 64 63 94 CALM 30.10R  
REDWOOD FALLS CLEAR 64 64 100 CALM 30.05S FOG  
TRACY CLEAR 65 64 95 W6 30.07F  
WINDOM CLEAR 64 59 82 NW8 30.06S  
WORTHINGTON CLEAR 64 63 96 NW7 30.09R  

 
 
IAZ001>003-012>014-020>022-031-032-NEZ013-014-SDZ071-171200-  
NORTHWEST IOWA  
 
CITY SKY/WX TMP DP RH WIND PRES REMARKS
 
CHEROKEE CLEAR 64 64 100 N5 30.07R  
DENISON CLOUDY 64 64 100 N5 30.06F  
ESTHERVILLE CLEAR 62 62 100 NW5 30.05R  
ORANGE CITY CLEAR 64 64 100 NW5 30.09R  
SHELDON CLEAR 63 63 100 CALM 30.07R  
SIOUX CITY CLEAR 64 64 100 NW5 30.07R  
SPENCER CLEAR 64 63 96 NW5 30.07R  
STORM LAKE CLEAR 63 63 100 NW7 30.06S  

 
 
ABBREVIATIONS USED IN REMARKS  
TC - TEMPERATURE IN CELSIUS  
WCI - WIND CHILL INDEX  
HX - HEAT INDEX  
VSB - VISIBILITY  
 
 
 
CLICK HERE TO GO TO PREVIOUS BULLETINS.

The Nexlab SD Page
The Nexlab IA Page
The Nexlab MN Page
The Nexlab NE Page Main Text Page